OpenBCM V1.07b12 (Linux)

Packet Radio Mailbox

SR1BSZ

[Szczecin_PL JO73GK]

 Login: GUEST





  
I0OJJ  > KEPS     23.10.25 09:02z 316 Lines 15004 Bytes #5 (0) @ AMSAT
BID : ORB25296.1
Read: GUEST
Subj: 2Line Orbital Elements 25296.AMSAT
Path: SR1BSZ<EA2RCF<I0OJJ
Sent: 251023/0021z @:I0OJJ.ITA.EU [Rome] obcm1.08-11-2-gbfe9
From: I0OJJ @ I0OJJ.ITA.EU (Gustavo)
To:   KEPS @ AMSAT
X-Info: This message was generated automatically


QST de W1STR

AMSAT Orbital Elements for Amateur Satellites in TLE Format
From Orbital Analysis Office
New England Sci-Tech STEM Education Center
Natick MA October 23, 2025
To all radio amateurs


These element sets describe the orbits of various satellites 
in use by the amateur radio community. For details see:
www.amsat.org/keplerian-elements-formats/

A daily update of element sets is available at:
www.amsat.org/tle/daily-bulletin.txt
or without bulletin text:
www.amsat.org/tle/dailytle.txt


AO-07
1 07530U 74089B   25295.26693471 -.00000036  00000-0  66064-4 0  9990
2 07530 101.9985 300.9874 0011987 224.5875 203.6897 12.53692679330708
UO-11
1 14781U 84021B   25295.48694806  .00002193  00000-0  23375-3 0  9992
2 14781  97.7729 259.3434 0006118 246.2775 113.7801 14.89881213221723
AO-27
1 22825U 93061C   25295.18223917  .00000226  00000-0  10306-3 0  9997
2 22825  98.7217 357.3096 0009472  80.4660 279.7592 14.30848711672962
FO-29
1 24278U 96046B   25295.38863949  .00000048  00000-0  85439-4 0  9996
2 24278  98.5516 171.4034 0349898 353.4207   6.2402 13.53257616441006
NOAA-15
1 25338U 98030A   25295.50555365  .00000243  00000-0  11748-3 0  9991
2 25338  98.5276 317.3477 0009603 329.7431  30.3194 14.27039929427390
GO-32
1 25397U 98043D   25295.49738083  .00000159  00000-0  89060-4 0  9997
2 25397  98.9872 277.5375 0001621 140.4640 219.6656 14.24355434417491
ISS
1 25544U 98067A   25295.52400961  .00014217  00000-0  26248-3 0  9990
2 25544  51.6347  36.0364 0004442 324.2290  35.8401 15.49349875534914
NO-44
1 26931U 01043C   25295.46527284  .00000279  00000-0  13541-3 0  9995
2 26931  67.0489 139.0730 0007131 272.9997  87.0289 14.31810653256411
SO-50
1 27607U 02058C   25295.46168228  .00001833  00000-0  23899-3 0  9996
2 27607  64.5517 144.0484 0068910 306.1456  53.3285 14.82115245229211
CO-55
1 27844U 03031E   25295.51297872  .00000582  00000-0  27172-3 0  9993
2 27844  98.6785 302.0726 0010121 150.1271 210.0487 14.24115064157847
CO-57
1 27848U 03031J   25295.45477559  .00000479  00000-0  23014-3 0  9998
2 27848  98.6813 301.9174 0009696 167.2880 192.8544 14.23432658157557
RS-22
1 27939U 03042A   25295.48667718  .00002006  00000-0  32231-3 0  9991
2 27939  98.3373 108.3321 0010450 306.0887 116.0117 14.72749600180551
CO-58
1 28895U 05043F   25295.38302381  .00003075  00000-0  50227-3 0  9999
2 28895  98.2688  81.6157 0013494 237.5124 122.4778 14.71581861 66766
CO-65
1 32785U 08021C   25295.49732517  .00007992  00000-0  55016-3 0  9994
2 32785  97.8015 267.9127 0011447 111.1677 249.0774 15.06103185949377
CO-66
1 32791U 08021J   25295.49381936  .00021143  00000-0  90452-3 0  9993
2 32791  97.7413 278.9818 0006274  75.0144 285.1786 15.22831990950997
RS-30
1 32953U 08025A   25295.28473515  .00000035  00000-0  18171-3 0  9994
2 32953  82.5012 143.4295 0019852 109.8775 250.4446 12.43169650790134
NOAA-19
1 33591U 09005A   25295.27262520  .00000104  00000-0  79233-4 0  9997
2 33591  98.9833   0.6419 0013421 347.4838  12.5999 14.13420063860879
SRMSAT
1 37841U 11058D   25295.07869112  .00000539  00000-0  14881-3 0  9997
2 37841  19.9723  60.6071 0011812 103.8480  52.3394 14.11484563724133
ZACUBE-1
1 39417U 13066B   25295.31455784  .00008841  00000-0  73539-3 0  9991
2 39417  97.7986 251.8394 0041553 324.8125  35.0354 14.98256758645074
Delfi-N3xt
1 39428U 13066N   25295.27644551  .00011637  00000-0  11225-2 0  9990
2 39428  97.8301 211.5390 0079014 276.8441  82.3792 14.90690427639124
GOMX-1
1 39430U 13066Q   25295.31864352  .00002908  00000-0  44923-3 0  9994
2 39430  97.6651 145.6592 0132261 120.5741 240.8591 14.68257758634995
LO-74
1 39440U 13066AA  25295.28468417  .00006001  00000-0  58808-3 0  9998
2 39440  97.8627 239.0795 0062576  94.9249 265.9117 14.91153108641509
AO-73
1 39444U 13066AE  25295.13946948  .00012970  00000-0  91009-3 0  9998
2 39444  97.7982 257.8551 0037819 293.6222  66.1035 15.04716683643808
DTUSAT-2
1 40030U 14033W   25295.21869891  .00012021  00000-0  73276-3 0  9999
2 40030  98.0711 273.8469 0007774 339.5691  20.5225 15.10503362616707
EO-80
1 40032U 14033Y   25295.16543513  .00012290  00000-0  74766-3 0  9998
2 40032  98.0585 273.2581 0005999 265.2748  94.7795 15.10581073616678
LILACSAT-2
1 40908U 15049K   25295.52587346  .00018613  00000-0  42840-3 0  9993
2 40908  97.4975 319.3945 0009663  45.4456 314.7578 15.42636199559000
IO-86
1 40931U 15052B   25151.18580175  .00001241  00000-0  78118-4 0  9996
2 40931   6.0006  24.0987 0012733 338.8432  21.1169 14.78805930523159
Horyu-4
1 41340U 16012D   25295.28377617  .00049187  00000-0  10033-2 0  9994
2 41340  30.9957 301.7129 0003065  49.3366 310.7548 15.44938490533573
Lapan A3
1 41603U 16040E   25295.52712921  .00004903  00000-0  16601-3 0  9990
2 41603  97.1422 294.9680 0012014 138.9417 221.2731 15.30965286518423
CAS-2T
1 41847U 16066G   25295.48754153  .00002656  00000-0  38116-3 0  9994
2 41847  98.4091   8.7291 0345450 130.1175 233.0835 14.43932069470481
TechnoSat
1 42829U 17042E   25295.40261470  .00006790  00000-0  50953-3 0  9993
2 42829  97.4026  97.8494 0018538 183.9438 176.1645 15.02808494450962
AO-91
1 43017U 17073E   25295.42091140  .00011733  00000-0  56557-3 0  9993
2 43017  97.5014 162.8281 0167290  66.5979 295.2742 15.07285279429505
S-Net D
1 43186U 18014G   25295.52872999  .00007683  00000-0  43303-3 0  9990
2 43186  97.5486 197.0665 0010597 114.0405 246.1936 15.13428520422778
S-Net B
1 43187U 18014H   25295.46986532  .00008048  00000-0  45362-3 0  9996
2 43187  97.5492 196.9863 0011296 110.7798 249.4644 15.13403599422769
S-Net A
1 43188U 18014J   25295.52863900  .00007798  00000-0  43931-3 0  9998
2 43188  97.5500 197.2132 0011238 111.0845 249.1588 15.13434058422775
S-Net C
1 43189U 18014K   25295.47264448  .00008166  00000-0  46014-3 0  9990
2 43189  97.5517 197.1947 0012743 105.6407 254.6231 15.13396870421316
Ten-Koh
1 43677U 18084G   25295.46656139  .00003783  00000-0  29866-3 0  9996
2 43677  98.0697 113.0624 0009178 171.3076 188.8308 15.01323712380478
PO-101
1 43678U 18084H   25295.52841499  .00004372  00000-0  36530-3 0  9990
2 43678  98.1083 116.9276 0007613 179.3937 180.7295 14.99066340380596
QO-100
1 43700U 18090A   25295.48326351  .00000000  00000-0  00000+0 0  9996
2 43700   0.0133 224.7928 0001849  25.3785 340.7263  1.00271387 25291
MinXSS-2
1 43758U 18099A   25295.44202806  .00028913  00000-0  96043-3 0  9991
2 43758  97.4873   2.2294 0010960  45.9629 314.2513 15.31108800377561
AO-95
1 43770U 18099N   25295.41290804  .00014836  00000-0  68635-3 0  9992
2 43770  97.4754 352.1214 0011545 102.6121 257.6406 15.20181288377010
SNUSat 2
1 43782U 18099AA  25295.49283992  .00012100  00000-0  61478-3 0  9993
2 43782  97.4436 347.8058 0012493  51.7609 308.4746 15.16956571376937
SnugLite
1 43784U 18099AC  25295.08358631  .00016106  00000-0  73822-3 0  9999
2 43784  97.4251 347.2835 0004413  63.3103 296.8584 15.20534208377050
ITASat 1
1 43786U 18099AE  25295.46123727  .00008951  00000-0  48200-3 0  9990
2 43786  97.4402 346.8625 0015354  99.6504 260.6464 15.14947377376867
EAGLET 1
1 43790U 18099AJ  25295.43933676  .00006491  00000-0  39833-3 0  9993
2 43790  97.4598 346.3012 0013161  87.3154 272.9582 15.10378253376417
ESEO
1 43792U 18099AL  25295.36343368  .00001992  00000-0  15136-3 0  9991
2 43792  97.4312 337.6344 0014170  67.5262 292.7462 15.03185202376065
JO-97
1 43803U 18099AX  25295.39613263  .00019522  00000-0  79281-3 0  9990
2 43803  97.4499 353.4461 0007518  43.1426 317.0399 15.24595907377285
Suomi 100
1 43804U 18099AY  25295.45278088  .00015704  00000-0  69886-3 0  9998
2 43804  97.4564 352.3624 0012291  43.4866 316.7336 15.21494452377189
ISAT
1 43879U 18111D   25295.44641522  .00040032  00000-0  11040-2 0  9991
2 43879  97.5885 213.3022 0011028  83.0273 277.2224 15.36938130374350
UWE-4
1 43880U 18111E   25295.51384595  .00027608  00000-0  91755-3 0  9991
2 43880  97.5829 210.7639 0013622  93.1174 267.1625 15.31070882374235
Sparrow
1 43881U 18111F   25295.49786240  .00042579  00000-0  11081-2 0  9999
2 43881  97.6061 216.8228 0009333 106.5936 253.6334 15.38734396374472
Prox-1
1 44339U 19036A   25295.20897690  .00016361  00000-0  19190-2 0  9995
2 44339  23.9968 255.5488 0007355 171.6496 188.4125 14.83280868338004
Taurus 1
1 44530U 19059C   25295.53334250  .00010316  00000-0  18088-2 0  9996
2 44530  98.6214  81.6226 0008685 335.6193  24.4598 14.67936150323721
Duchifat 3
1 44854U 19089C   25295.11132495  .00192402  00000-0  16550-2 0  9998
2 44854  36.9341 210.3216 0009955 271.8983  88.0640 15.67732907323959
TO-108
1 44881U 19093C   25295.52560757  .00001813  00000-0  21357-3 0  9991
2 44881  97.7812   8.2940 0014511 143.9225 216.2973 14.85925651316110
FloripaSat 1
1 44885U 19093G   25295.50452530  .00009316  00000-0  74753-3 0  9996
2 44885  97.8089  23.4850 0011181 128.5201 231.7026 15.00256300316963
RS-44
1 44909U 19096E   25295.49347811  .00000024  00000-0  54969-4 0  9994
2 44909  82.5189 137.6669 0217216 340.3980  18.8863 12.79744751271949
SALSAT
1 46495U 20068K   25295.50579331  .00011831  00000-0  47518-3 0  9992
2 46495  97.8750 280.0740 0012738  59.7681 300.4815 15.25051015279075
CSS (TIANHE-1)
1 48274U 21035A   25295.48786529  .00035052  00000-0  41598-3 0  9993
2 48274  41.4668 328.0853 0011382 262.2574  97.6973 15.60400066256022
TUBIN
1 48900U 21059X   25295.49033628  .00139144  00000-0  77224-3 0  9993
2 48900  97.6725 117.2216 0001701  91.5173 268.6288 15.79130660241177
CUTE
1 49263U 21088D   25295.47038152  .00056503  00000-0  85825-3 0  9996
2 49263  97.4398  16.1852 0006933  99.2800 260.9238 15.54373066225322
